Date String (YYYY-MM-DD hh:mm:ss) UTC,Instrument flags,Ambient pressure (hPa),Sample flow (lpm),Bypass flow (lpm),Sample temperature (°C),Ambient temperature (°C),ASC tube jacket temperature (°C),LED temperature (°C),Box temperature (°C),Sample RH (%),Span deviation,Mass concentration (μg/m³),Mass concentration (μg/m³),Mass concentration (μg/m³)
DateTimeUTC,F1_M11,P_M11,Q1_M11,Q2_M11,T1_M11,T2_M11,T3_M11,T4_M11,T5_M11,U1_M11,ZSPAN_M11,X2_M11,X0_M11,X1_M11
2022-02-15 19:00:00,,0815.0,5.01,0.00,26.6,25.8,00.0,35.4,28.5,05.2,0000.0,0002.32,0005.60,0001.83
2022-02-15 19:01:00,,0815.0,4.99,0.00,26.6,25.8,00.0,35.4,28.5,05.4,0000.0,0002.37,0005.68,0001.86
2022-02-15 19:02:00,,0814.9,5.00,0.00,26.6,25.8,00.0,35.4,28.5,05.9,0000.0,0002.40,0005.73,0001.89
2022-02-15 19:03:00,,0814.8,4.98,0.00,26.6,25.8,00.0,35.4,28.5,06.0,0000.0,0002.49,0006.16,0001.93
2022-02-15 19:04:00,,0814.9,5.00,0.00,26.7,25.9,00.0,35.4,28.5,06.1,0000.0,0002.54,0006.42,0001.97
2022-02-15 19:05:00,,0814.9,4.99,0.00,26.7,25.9,00.0,35.5,28.5,06.3,0000.0,0002.60,0006.87,0002.03
2022-02-15 19:06:00,,0814.8,5.00,0.00,26.7,25.9,00.0,35.5,28.5,06.0,0000.0,0002.66,0005.66,0002.10
2022-02-15 19:07:00,,0814.8,5.00,0.00,26.7,25.9,00.0,35.5,28.5,06.2,0000.0,0002.71,0005.52,0002.16
2022-02-15 19:08:00,,0814.8,4.99,0.00,26.7,25.9,00.0,35.5,28.6,06.4,0000.0,0002.76,0005.40,0002.22
2022-02-15 19:09:00,,0814.7,5.01,0.00,26.7,25.9,00.0,35.5,28.6,06.3,0000.0,0002.83,0005.42,0002.28
2022-02-15 19:10:00,,0814.7,4.99,0.00,26.7,25.9,00.0,35.5,28.6,06.7,0000.0,0002.91,0005.49,0002.37
2022-02-15 19:11:00,,0814.8,5.01,0.00,26.7,25.9,00.0,35.6,28.6,06.4,0000.0,0003.04,0005.66,0002.47
2022-02-15 19:12:00,,0814.7,4.99,0.00,26.7,25.9,00.0,35.6,28.6,06.1,0000.0,0003.11,0005.63,0002.56
2022-02-15 19:13:00,,0814.7,5.02,0.00,26.8,26.0,00.0,35.6,28.6,06.3,0000.0,0003.16,0005.69,0002.63
2022-02-15 19:14:00,,0814.7,5.00,0.00,26.8,26.0,00.0,35.6,28.6,06.2,0000.0,0003.15,0005.33,0002.70
2022-02-15 19:15:00,,0814.7,5.00,0.00,26.8,26.0,00.0,35.6,28.6,05.6,0000.0,0003.19,0005.08,0002.77
2022-02-15 19:16:00,,0814.7,5.02,0.00,26.8,26.0,00.0,35.6,28.6,06.1,0000.0,0003.24,0006.06,0002.85
2022-02-15 19:17:00,,0814.7,5.00,0.00,26.8,26.0,00.0,35.6,28.7,07.2,0000.0,0003.35,0006.86,0003.03
2022-02-15 19:18:00,,0814.7,5.00,0.00,26.8,26.0,00.0,35.6,28.7,08.0,0000.0,0003.50,0006.86,0003.23
2022-02-15 19:19:00,,0814.7,5.01,0.00,26.8,26.1,00.0,35.7,28.7,07.1,0000.0,0003.64,0007.10,0003.37
2022-02-15 19:20:00,,0814.6,5.00,0.00,26.8,26.1,00.0,35.7,28.7,07.1,0000.0,0003.74,0007.32,0003.48
2022-02-15 19:21:00,,0814.8,5.00,0.00,26.9,26.1,00.0,35.7,28.7,07.6,0000.0,0003.86,0007.57,0003.59
2022-02-15 19:22:00,,0814.6,5.00,0.00,26.9,26.1,00.0,35.7,28.7,07.6,0000.0,0003.95,0007.69,0003.69
2022-02-15 19:23:00,,0814.7,5.02,0.00,26.9,26.1,00.0,35.7,28.8,07.0,0000.0,0004.04,0007.87,0003.78
2022-02-15 19:24:00,,0814.8,4.98,0.00,26.9,26.1,00.0,35.7,28.8,06.6,0000.0,0004.14,0008.08,0003.84
2022-02-15 19:25:00,,0815.0,5.01,0.00,26.9,26.2,00.0,35.8,28.8,07.6,0000.0,0004.29,0008.31,0003.94
2022-02-15 19:26:00,,0814.9,4.99,0.00,26.9,26.2,00.0,35.8,28.8,07.8,0000.0,0004.44,0008.50,0004.06
2022-02-15 19:27:00,,0814.8,5.00,0.00,26.9,26.2,00.0,35.8,28.8,07.7,0000.0,0004.61,0008.16,0004.20
2022-02-15 19:28:00,,0815.0,5.01,0.00,26.9,26.2,00.0,35.8,28.8,07.5,0000.0,0004.74,0007.73,0004.31
2022-02-15 19:29:00,,0814.7,4.99,0.00,26.9,26.2,00.0,35.8,28.8,07.7,0000.0,0004.82,0007.89,0004.36
2022-02-15 19:30:00,,0814.5,5.00,0.00,27.0,26.2,00.0,35.8,28.8,07.4,0000.0,0004.87,0007.97,0004.38
2022-02-15 19:31:00,,0814.4,4.99,0.00,27.0,26.2,00.0,35.8,28.8,07.4,0000.0,0004.93,0007.99,0004.43
2022-02-15 19:32:00,,0814.4,4.99,0.00,27.0,26.2,00.0,35.8,28.9,07.3,0000.0,0004.93,0007.93,0004.44
2022-02-15 19:33:00,,0814.4,5.01,0.00,27.0,26.2,00.0,35.9,28.9,06.4,0000.0,0004.93,0007.85,0004.43
2022-02-15 19:34:00,,0814.4,5.00,0.00,27.0,26.3,00.0,35.9,28.9,06.3,0000.0,0004.92,0007.81,0004.42
2022-02-15 19:35:00,,0814.4,5.00,0.00,27.0,26.3,00.0,35.9,28.9,06.3,0000.0,0004.91,0007.66,0004.45
2022-02-15 19:36:00,,0814.4,4.99,0.00,27.0,26.3,00.0,35.9,28.9,06.5,0000.0,0004.92,0007.63,0004.48
2022-02-15 19:37:00,,0814.3,5.00,0.00,27.1,26.3,00.0,35.9,28.9,06.8,0000.0,0004.89,0007.65,0004.46
2022-02-15 19:38:00,,0814.3,5.02,0.00,27.1,26.3,00.0,35.9,28.9,06.7,0000.0,0004.87,0007.69,0004.43
2022-02-15 19:39:00,,0814.2,4.98,0.00,27.1,26.4,00.0,35.9,28.9,06.7,0000.0,0004.85,0007.69,0004.40
2022-02-15 19:40:00,,0814.3,5.01,0.00,27.1,26.4,00.0,35.9,28.9,07.0,0000.0,0004.84,0007.77,0004.38
2022-02-15 19:41:00,,0814.2,5.00,0.00,27.1,26.4,00.0,36.0,29.0,07.3,0000.0,0004.84,0007.91,0004.37
2022-02-15 19:42:00,,0814.1,4.99,0.00,27.1,26.4,00.0,36.0,29.0,06.8,0000.0,0004.88,0008.01,0004.38
2022-02-15 19:43:00,,0814.1,5.00,0.00,27.2,26.5,00.0,36.0,29.0,06.0,0000.0,0004.93,0008.14,0004.38
2022-02-15 19:44:00,,0814.1,4.99,0.00,27.2,26.5,00.0,36.0,29.0,05.2,0000.0,0004.90,0008.17,0004.35
2022-02-15 19:45:00,,0814.1,5.01,0.00,27.2,26.5,00.0,36.0,29.1,06.0,0000.0,0004.92,0008.22,0004.36
2022-02-15 19:46:00,,0814.4,5.00,0.00,27.2,26.5,00.0,36.0,29.1,07.8,0000.0,0005.09,0008.58,0004.50
2022-02-15 19:47:00,,0814.2,4.99,0.00,27.2,26.5,00.0,36.1,29.1,08.8,0000.0,0005.40,0008.92,0004.76
2022-02-15 19:48:00,,0814.1,5.02,0.00,27.2,26.5,00.0,36.1,29.1,08.9,0000.0,0005.78,0009.33,0005.09
2022-02-15 19:49:00,,0814.1,4.99,0.00,27.3,26.5,00.0,36.1,29.1,07.7,0000.0,0006.04,0009.58,0005.34
2022-02-15 19:50:00,,0814.2,5.01,0.00,27.3,26.6,00.0,36.1,29.1,07.4,0000.0,0006.15,0009.88,0005.48
2022-02-15 19:51:00,,0814.1,5.01,0.00,27.3,26.6,00.0,36.1,29.2,07.6,0000.0,0006.31,0010.02,0005.66
2022-02-15 19:52:00,,0814.0,4.99,0.00,27.3,26.6,00.0,36.1,29.1,09.2,0000.0,0006.60,0010.22,0005.91
2022-02-15 19:53:00,,0814.0,5.01,0.00,27.3,26.6,00.0,36.2,29.2,09.0,0000.0,0006.96,0010.72,0006.26
2022-02-15 19:54:00,,0814.0,5.00,0.00,27.3,26.6,00.0,36.2,29.2,08.6,0000.0,0007.27,0011.19,0006.59
2022-02-15 19:55:00,,0814.0,4.99,0.00,27.4,26.6,00.0,36.2,29.2,08.4,0000.0,0007.68,0011.70,0006.97
2022-02-15 19:56:00,,0814.0,5.00,0.00,27.4,26.7,00.0,36.2,29.2,08.6,0000.0,0008.12,0012.68,0007.38
2022-02-15 19:57:00,,0814.0,5.01,0.00,27.4,26.7,00.0,36.2,29.2,08.9,0000.0,0008.39,0013.30,0007.65
2022-02-15 19:58:00,,0814.1,4.98,0.00,27.4,26.7,00.0,36.2,29.3,08.2,0001.0,0008.49,0013.38,0007.75
2022-02-15 19:59:00,,0814.0,5.02,0.00,27.4,26.7,00.0,36.3,29.3,08.1,0003.5,0008.49,0013.42,0007.75
